RYR54HT EPMO-LGSA

Flight info

Callsign RYR54HT
Flight time 2h 32m
Altitude 36000
Route EVINA M66 BABKO/N0460F350 DCT PARAK DCT RAXAD DCT MAKED UL617 SKP UM749 ATV UP169 MANOK L612 RUSOS
Aircraft B738/M-SDE2E3FGHIRWXY/LB1

Departure

Time 2026-04-21 15:04
Airport Warsaw Modlin Airport (EPMO)

Arrival

Time 2026-04-21 17:37
Airport Chania International Airport (LGSA)
Time Latitude Longitude Altitude Speed Heading
2026-04-21 14:50 52.44706 20.64858 337 ft 0 kts 206°
2026-04-21 14:56 52.44708 20.64860 333 ft 3 kts 206°
2026-04-21 14:56 52.44732 20.64880 334 ft 4 kts 213°
2026-04-21 14:56 52.44752 20.64907 332 ft 4 kts 233°
2026-04-21 14:56 52.44761 20.64937 337 ft 0 kts 261°
2026-04-21 14:59 52.44758 20.64908 334 ft 8 kts 261°
2026-04-21 14:59 52.44744 20.64765 333 ft 15 kts 261°
2026-04-21 14:59 52.44730 20.64615 335 ft 12 kts 261°
2026-04-21 14:59 52.44718 20.64502 335 ft 8 kts 261°
2026-04-21 15:00 52.44710 20.64418 334 ft 8 kts 261°
2026-04-21 15:00 52.44700 20.64306 337 ft 11 kts 262°
2026-04-21 15:00 52.44690 20.64187 337 ft 9 kts 262°
2026-04-21 15:00 52.44682 20.64100 333 ft 7 kts 261°
2026-04-21 15:01 52.44673 20.64006 337 ft 11 kts 261°
2026-04-21 15:01 52.44660 20.63864 337 ft 13 kts 261°
2026-04-21 15:01 52.44648 20.63738 336 ft 10 kts 261°
2026-04-21 15:01 52.44639 20.63649 334 ft 6 kts 261°
2026-04-21 15:02 52.44635 20.63603 334 ft 1 kts 260°
2026-04-21 15:02 52.44633 20.63586 333 ft 5 kts 260°
2026-04-21 15:02 52.44634 20.63485 332 ft 9 kts 295°
2026-04-21 15:02 52.44695 20.63441 332 ft 13 kts 352°
2026-04-21 15:03 52.44795 20.63417 332 ft 15 kts 352°
2026-04-21 15:03 52.44886 20.63395 334 ft 12 kts 351°
2026-04-21 15:03 52.44946 20.63408 337 ft 6 kts 43°
2026-04-21 15:03 52.44964 20.63508 333 ft 18 kts 80°
2026-04-21 15:04 52.45020 20.64103 337 ft 87 kts 81°
2026-04-21 15:04 52.45095 20.64911 332 ft 128 kts 81°
2026-04-21 15:04 52.45262 20.66627 462 ft 169 kts 78°
2026-04-21 15:04 52.45459 20.68489 1299 ft 161 kts 76°
2026-04-21 15:05 52.45676 20.70335 1976 ft 172 kts 76°
2026-04-21 15:05 52.46339 20.74530 2891 ft 208 kts 57°
2026-04-21 15:05 52.47302 20.76388 3403 ft 217 kts 39°
2026-04-21 15:06 52.48594 20.77783 3851 ft 237 kts 25°
2026-04-21 15:06 52.50285 20.78247 4354 ft 253 kts 352°
2026-04-21 15:06 52.51966 20.77630 5358 ft 248 kts 347°
2026-04-21 15:06 52.53693 20.77049 6078 ft 256 kts 351°
2026-04-21 15:07 52.55440 20.76333 6798 ft 264 kts 333°
2026-04-21 15:07 52.56764 20.74237 7563 ft 272 kts 301°
2026-04-21 15:07 52.57337 20.71240 8316 ft 280 kts 276°
2026-04-21 15:07 52.57113 20.68027 9033 ft 289 kts 251°
2026-04-21 15:08 52.56088 20.65168 9715 ft 296 kts 226°
2026-04-21 15:08 52.54379 20.63268 10385 ft 302 kts 199°
2026-04-21 15:08 52.52278 20.62483 10663 ft 322 kts 185°
2026-04-21 15:08 52.50004 20.62208 10847 ft 343 kts 180°
2026-04-21 15:09 52.47537 20.62068 11029 ft 365 kts 180°
2026-04-21 15:09 52.44944 20.61934 11454 ft 377 kts 180°
2026-04-21 15:09 52.42306 20.61768 12113 ft 381 kts 180°
2026-04-21 15:09 52.39642 20.61563 12820 ft 384 kts 180°
2026-04-21 15:10 52.36954 20.61330 13459 ft 388 kts 181°
2026-04-21 15:10 52.34246 20.61077 14115 ft 391 kts 181°
2026-04-21 15:10 52.31512 20.60813 14737 ft 394 kts 181°
2026-04-21 15:10 52.28765 20.60542 15359 ft 398 kts 180°
2026-04-21 15:11 52.25991 20.60269 15982 ft 401 kts 180°
2026-04-21 15:11 52.23189 20.59994 16580 ft 404 kts 180°
2026-04-21 15:11 52.20410 20.59721 17165 ft 407 kts 180°
2026-04-21 15:11 52.17579 20.59443 17737 ft 409 kts 180°
2026-04-21 15:12 52.14723 20.59163 18268 ft 413 kts 180°
2026-04-21 15:12 52.11841 20.58882 18801 ft 416 kts 180°
2026-04-21 15:12 52.08937 20.58598 19307 ft 420 kts 180°
2026-04-21 15:12 52.06011 20.58313 19807 ft 423 kts 180°
2026-04-21 15:13 52.03056 20.58025 20307 ft 426 kts 180°
2026-04-21 15:13 52.00087 20.57737 20763 ft 430 kts 180°
2026-04-21 15:13 51.97092 20.57443 21264 ft 432 kts 181°
2026-04-21 15:13 51.94096 20.56771 21754 ft 437 kts 190°
2026-04-21 15:14 51.91180 20.55280 22162 ft 443 kts 198°
2026-04-21 15:14 51.88285 20.53523 22588 ft 446 kts 198°
2026-04-21 15:14 51.85369 20.51742 22995 ft 449 kts 198°
2026-04-21 15:14 51.82433 20.49976 23403 ft 451 kts 198°
2026-04-21 15:15 51.79468 20.48221 23774 ft 454 kts 198°
2026-04-21 15:15 51.76484 20.46478 24131 ft 458 kts 198°
2026-04-21 15:15 51.73472 20.44730 24380 ft 464 kts 198°
2026-04-21 15:15 51.70414 20.42957 24696 ft 467 kts 198°
2026-04-21 15:16 51.67353 20.41187 25115 ft 468 kts 197°
2026-04-21 15:16 51.64222 20.39753 25494 ft 468 kts 188°
2026-04-21 15:16 51.61035 20.39130 25824 ft 467 kts 182°
2026-04-21 15:16 51.57788 20.38723 26161 ft 469 kts 182°
2026-04-21 15:17 51.54520 20.38313 26487 ft 471 kts 182°
2026-04-21 15:17 51.51247 20.37868 26785 ft 474 kts 182°
2026-04-21 15:17 51.47950 20.37385 27085 ft 476 kts 183°
2026-04-21 15:17 51.44636 20.36884 27413 ft 477 kts 183°
2026-04-21 15:18 51.41358 20.36387 27710 ft 479 kts 183°
2026-04-21 15:18 51.38040 20.35661 27976 ft 483 kts 190°
2026-04-21 15:18 51.34787 20.34162 28267 ft 486 kts 197°
2026-04-21 15:18 51.31581 20.32437 28586 ft 486 kts 197°
2026-04-21 15:19 51.28371 20.30688 28938 ft 486 kts 197°
2026-04-21 15:19 51.25165 20.28961 29332 ft 485 kts 197°
2026-04-21 15:19 51.22019 20.27294 29712 ft 483 kts 197°
2026-04-21 15:19 51.18780 20.25606 30083 ft 482 kts 197°
2026-04-21 15:20 51.15635 20.23981 30416 ft 481 kts 196°
2026-04-21 15:20 51.12457 20.22345 30741 ft 480 kts 196°
2026-04-21 15:20 51.09277 20.20710 31047 ft 480 kts 196°
2026-04-21 15:20 51.06100 20.19079 31381 ft 479 kts 197°
2026-04-21 15:21 51.02936 20.17455 31715 ft 478 kts 197°
2026-04-21 15:21 50.99768 20.15831 32008 ft 477 kts 197°
2026-04-21 15:21 50.96604 20.14210 32284 ft 477 kts 197°
2026-04-21 15:21 50.93453 20.12599 32601 ft 476 kts 197°
2026-04-21 15:22 50.90299 20.10990 32911 ft 475 kts 197°
2026-04-21 15:22 50.87154 20.09400 33208 ft 474 kts 197°
2026-04-21 15:22 50.84009 20.07816 33499 ft 473 kts 197°
2026-04-21 15:22 50.80873 20.06238 33739 ft 473 kts 197°
2026-04-21 15:23 50.77739 20.04657 34007 ft 472 kts 198°
2026-04-21 15:23 50.74612 20.03072 34294 ft 471 kts 198°
2026-04-21 15:23 50.71532 20.01509 34539 ft 470 kts 198°
2026-04-21 15:23 50.68411 19.99924 34711 ft 471 kts 198°
2026-04-21 15:24 50.65291 19.98343 34945 ft 471 kts 198°
2026-04-21 15:24 50.62180 19.96770 35226 ft 469 kts 198°
2026-04-21 15:24 50.59077 19.95205 35431 ft 469 kts 198°
2026-04-21 15:24 50.55964 19.93634 35614 ft 469 kts 198°
2026-04-21 15:25 50.52854 19.92068 35825 ft 469 kts 198°
2026-04-21 15:25 50.49747 19.90506 36034 ft 469 kts 198°
2026-04-21 15:25 50.46638 19.88947 36221 ft 469 kts 198°
2026-04-21 15:25 50.43530 19.87390 36380 ft 469 kts 198°
2026-04-21 15:26 50.40416 19.85832 36519 ft 470 kts 198°
2026-04-21 15:26 50.37301 19.84277 36708 ft 469 kts 198°
2026-04-21 15:26 50.34195 19.82728 36997 ft 466 kts 198°
2026-04-21 15:26 50.31104 19.81188 37134 ft 466 kts 198°
2026-04-21 15:27 50.24916 19.78112 37120 ft 465 kts 198°
2026-04-21 15:27 50.18783 19.75070 37119 ft 459 kts 198°
2026-04-21 15:28 50.12710 19.72061 37130 ft 456 kts 198°
2026-04-21 15:28 50.06701 19.69097 37126 ft 456 kts 198°
2026-04-21 15:29 50.00653 19.66120 37127 ft 456 kts 198°
2026-04-21 15:29 49.94607 19.63154 37134 ft 455 kts 199°
2026-04-21 15:30 49.88548 19.60191 37130 ft 457 kts 199°
2026-04-21 15:30 49.82473 19.57226 37133 ft 459 kts 199°
2026-04-21 15:31 49.76372 19.54255 37128 ft 461 kts 199°
2026-04-21 15:31 49.70278 19.51293 37126 ft 462 kts 199°
2026-04-21 15:32 49.64129 19.48358 37120 ft 464 kts 195°
2026-04-21 15:32 49.57702 19.47420 37119 ft 467 kts 176°
2026-04-21 15:33 49.51239 19.48658 37113 ft 468 kts 173°
2026-04-21 15:33 49.44787 19.50013 37109 ft 467 kts 173°
2026-04-21 15:34 49.38335 19.51310 37096 ft 467 kts 174°
2026-04-21 15:34 49.31887 19.52560 37101 ft 466 kts 174°
2026-04-21 15:35 49.25522 19.53776 37099 ft 465 kts 174°
2026-04-21 15:35 49.19066 19.55004 37085 ft 465 kts 174°
2026-04-21 15:36 49.12647 19.56224 37091 ft 464 kts 174°
2026-04-21 15:36 49.06245 19.57441 37098 ft 463 kts 174°
2026-04-21 15:37 48.99858 19.58648 37080 ft 462 kts 174°
2026-04-21 15:37 48.93466 19.59855 37080 ft 462 kts 175°
2026-04-21 15:38 48.87125 19.61049 37086 ft 462 kts 175°
2026-04-21 15:38 48.80736 19.62251 37082 ft 462 kts 175°
2026-04-21 15:39 48.74347 19.63450 37100 ft 463 kts 175°
2026-04-21 15:39 48.67944 19.64647 37092 ft 463 kts 175°
2026-04-21 15:40 48.61538 19.65842 37079 ft 464 kts 175°
2026-04-21 15:40 48.55117 19.67037 37082 ft 465 kts 175°
2026-04-21 15:41 48.48692 19.68232 37087 ft 465 kts 175°
2026-04-21 15:41 48.42263 19.69420 37087 ft 465 kts 175°
2026-04-21 15:42 48.35865 19.70600 37077 ft 466 kts 175°
2026-04-21 15:42 48.29431 19.71784 37070 ft 466 kts 175°
2026-04-21 15:43 48.22997 19.72967 37075 ft 466 kts 176°
2026-04-21 15:43 48.16556 19.74143 37067 ft 465 kts 176°
2026-04-21 15:44 48.10135 19.75320 37074 ft 465 kts 176°
2026-04-21 15:44 48.03711 19.76494 37075 ft 465 kts 176°
2026-04-21 15:45 47.97285 19.77660 37071 ft 465 kts 176°
2026-04-21 15:45 47.90855 19.78823 37075 ft 465 kts 176°
2026-04-21 15:46 47.84432 19.79986 37076 ft 464 kts 176°
2026-04-21 15:46 47.78016 19.81144 37071 ft 464 kts 176°
2026-04-21 15:47 47.71639 19.82293 37076 ft 464 kts 176°
2026-04-21 15:47 47.65223 19.83446 37062 ft 464 kts 176°
2026-04-21 15:48 47.58813 19.84593 37062 ft 464 kts 176°
2026-04-21 15:48 47.52402 19.85737 37070 ft 464 kts 176°
2026-04-21 15:49 47.45988 19.86883 37061 ft 464 kts 176°
2026-04-21 15:49 47.40650 19.87832 37060 ft 465 kts 176°
2026-04-21 15:50 47.34218 19.88973 37054 ft 465 kts 176°
2026-04-21 15:50 47.27790 19.90111 37056 ft 465 kts 176°
2026-04-21 15:51 47.21357 19.91247 37055 ft 465 kts 177°
2026-04-21 15:51 47.14929 19.92380 37056 ft 465 kts 177°
2026-04-21 15:52 47.08499 19.93507 37056 ft 466 kts 177°
2026-04-21 15:52 47.02107 19.94628 37044 ft 466 kts 177°
2026-04-21 15:53 46.95675 19.95754 37042 ft 465 kts 178°
2026-04-21 15:53 46.89254 19.96875 37050 ft 464 kts 178°
2026-04-21 15:54 46.82843 19.97991 37042 ft 464 kts 178°
2026-04-21 15:54 46.76427 19.99105 37042 ft 464 kts 178°
2026-04-21 15:55 46.70006 20.00220 37045 ft 464 kts 178°
2026-04-21 15:55 46.63595 20.01321 37045 ft 463 kts 178°
2026-04-21 15:56 46.57197 20.02425 37050 ft 463 kts 178°
2026-04-21 15:56 46.50791 20.03530 37048 ft 463 kts 178°
2026-04-21 15:57 46.44426 20.04623 37046 ft 463 kts 178°
2026-04-21 15:57 46.38027 20.05716 37046 ft 462 kts 178°
2026-04-21 15:58 46.31637 20.06807 37037 ft 462 kts 179°
2026-04-21 15:58 46.25246 20.07896 37040 ft 462 kts 179°
2026-04-21 15:59 46.18847 20.08986 37038 ft 462 kts 178°
2026-04-21 15:59 46.12584 20.11453 37053 ft 473 kts 162°
2026-04-21 16:00 46.06516 20.15150 37039 ft 474 kts 161°
2026-04-21 16:00 46.00450 20.18870 37033 ft 474 kts 162°
2026-04-21 16:01 45.94366 20.22531 37038 ft 473 kts 162°
2026-04-21 16:01 45.88280 20.26145 37028 ft 474 kts 162°
2026-04-21 16:02 45.82178 20.29749 37034 ft 474 kts 162°
2026-04-21 16:02 45.76123 20.33318 37031 ft 474 kts 162°
2026-04-21 16:03 45.70022 20.36908 37026 ft 474 kts 162°
2026-04-21 16:03 45.63917 20.40494 37026 ft 474 kts 162°
2026-04-21 16:04 45.57806 20.44074 37028 ft 474 kts 162°
2026-04-21 16:04 45.51700 20.47646 37028 ft 474 kts 163°
2026-04-21 16:05 45.45592 20.51207 37026 ft 474 kts 163°
2026-04-21 16:05 45.39507 20.54746 37017 ft 474 kts 163°
2026-04-21 16:06 45.33394 20.58294 37017 ft 474 kts 163°
2026-04-21 16:06 45.27291 20.61828 37018 ft 473 kts 163°
2026-04-21 16:07 45.21195 20.65347 37017 ft 472 kts 163°
2026-04-21 16:07 45.15104 20.68860 37018 ft 472 kts 163°
2026-04-21 16:08 45.05969 20.74115 37018 ft 472 kts 163°
2026-04-21 16:09 44.99920 20.77579 37018 ft 472 kts 163°
2026-04-21 16:09 44.93835 20.81056 37019 ft 472 kts 163°
2026-04-21 16:10 44.87753 20.84524 37015 ft 472 kts 163°
2026-04-21 16:10 44.81661 20.87994 37022 ft 472 kts 163°
2026-04-21 16:11 44.75574 20.91445 37018 ft 472 kts 163°
2026-04-21 16:11 44.69476 20.94901 37018 ft 472 kts 163°
2026-04-21 16:12 44.64407 20.97769 37016 ft 471 kts 164°
2026-04-21 16:12 44.57329 21.01764 37018 ft 472 kts 164°
2026-04-21 16:13 44.51228 21.05195 37019 ft 472 kts 164°
2026-04-21 16:13 44.45136 21.08615 37019 ft 471 kts 164°
2026-04-21 16:14 44.39053 21.12023 37020 ft 471 kts 164°
2026-04-21 16:14 44.32964 21.15425 37018 ft 471 kts 164°
2026-04-21 16:15 44.26875 21.18821 37024 ft 471 kts 164°
2026-04-21 16:15 44.20790 21.22205 37027 ft 470 kts 164°
2026-04-21 16:16 44.14714 21.25576 37023 ft 470 kts 164°
2026-04-21 16:16 44.08678 21.28925 37028 ft 469 kts 164°
2026-04-21 16:17 44.02605 21.32283 37033 ft 469 kts 165°
2026-04-21 16:17 43.96529 21.35634 37022 ft 470 kts 165°
2026-04-21 16:18 43.90458 21.38974 37020 ft 470 kts 165°
2026-04-21 16:18 43.84359 21.42321 37018 ft 470 kts 165°
2026-04-21 16:19 43.78315 21.45633 37017 ft 471 kts 165°
2026-04-21 16:19 43.72219 21.48967 37014 ft 471 kts 165°
2026-04-21 16:20 43.66121 21.52291 37018 ft 471 kts 165°
2026-04-21 16:20 43.60022 21.55615 37017 ft 471 kts 165°
2026-04-21 16:21 43.53931 21.58921 37023 ft 470 kts 165°
2026-04-21 16:21 43.47838 21.62222 37025 ft 471 kts 165°
2026-04-21 16:22 43.41741 21.65517 37020 ft 471 kts 165°
2026-04-21 16:22 43.35638 21.68811 37014 ft 471 kts 165°
2026-04-21 16:23 43.29591 21.72069 37015 ft 470 kts 165°
2026-04-21 16:23 43.23497 21.75342 37020 ft 470 kts 165°
2026-04-21 16:24 43.17396 21.78616 37018 ft 470 kts 165°
2026-04-21 16:24 43.11301 21.81874 37019 ft 470 kts 165°
2026-04-21 16:25 43.05207 21.85124 37036 ft 470 kts 165°
2026-04-21 16:25 42.99107 21.88375 37020 ft 470 kts 165°
2026-04-21 16:26 42.93007 21.91618 37033 ft 470 kts 165°
2026-04-21 16:26 42.86906 21.94855 37028 ft 471 kts 165°
2026-04-21 16:27 42.80831 21.98070 37028 ft 471 kts 165°
2026-04-21 16:27 42.74715 22.01302 37026 ft 472 kts 165°
2026-04-21 16:28 42.68585 22.04532 37017 ft 472 kts 165°
2026-04-21 16:28 42.62465 22.07749 37023 ft 471 kts 165°
2026-04-21 16:29 42.57380 22.10418 37019 ft 472 kts 165°
2026-04-21 16:29 42.50215 22.14176 37016 ft 472 kts 165°
2026-04-21 16:30 42.44089 22.17376 37014 ft 472 kts 165°
2026-04-21 16:30 42.37984 22.20560 37007 ft 472 kts 165°
2026-04-21 16:31 42.31855 22.23740 37013 ft 471 kts 166°
2026-04-21 16:31 42.25576 22.25734 37027 ft 461 kts 177°
2026-04-21 16:32 42.19240 22.27128 37016 ft 460 kts 177°
2026-04-21 16:32 42.12917 22.28537 37022 ft 461 kts 176°
2026-04-21 16:33 42.06625 22.29995 37022 ft 461 kts 176°
2026-04-21 16:33 42.00295 22.31486 37022 ft 462 kts 176°
2026-04-21 16:34 41.93958 22.32970 37010 ft 462 kts 176°
2026-04-21 16:34 41.87620 22.34448 37006 ft 462 kts 176°
2026-04-21 16:35 41.81283 22.35927 37016 ft 462 kts 176°
2026-04-21 16:35 41.74945 22.37404 37005 ft 462 kts 176°
2026-04-21 16:36 41.69666 22.38630 37001 ft 462 kts 176°
2026-04-21 16:36 41.63331 22.40100 36998 ft 462 kts 176°
2026-04-21 16:37 41.56989 22.41570 37002 ft 462 kts 176°
2026-04-21 16:37 41.50654 22.43033 36989 ft 462 kts 176°
2026-04-21 16:38 41.44322 22.44496 36995 ft 461 kts 176°
2026-04-21 16:38 41.38050 22.45941 36979 ft 461 kts 176°
2026-04-21 16:39 41.31717 22.47393 36981 ft 460 kts 176°
2026-04-21 16:39 41.25409 22.48931 36968 ft 464 kts 171°
2026-04-21 16:40 41.19194 22.51407 36969 ft 467 kts 168°
2026-04-21 16:40 41.13007 22.54069 36962 ft 467 kts 168°
2026-04-21 16:41 41.06818 22.56676 36967 ft 466 kts 168°
2026-04-21 16:41 41.00622 22.59224 36961 ft 466 kts 169°
2026-04-21 16:42 40.94452 22.61737 36954 ft 466 kts 169°
2026-04-21 16:42 40.88242 22.64257 36952 ft 466 kts 169°
2026-04-21 16:43 40.82036 22.66774 36949 ft 466 kts 169°
2026-04-21 16:43 40.75821 22.69288 36945 ft 467 kts 169°
2026-04-21 16:44 40.69598 22.71801 36940 ft 467 kts 169°
2026-04-21 16:44 40.63384 22.74307 36946 ft 467 kts 169°
2026-04-21 16:45 40.57169 22.76808 36943 ft 467 kts 169°
2026-04-21 16:45 40.50946 22.79306 36944 ft 466 kts 169°
2026-04-21 16:46 40.44783 22.81776 36935 ft 466 kts 169°
2026-04-21 16:46 40.38588 22.84255 36936 ft 465 kts 169°
2026-04-21 16:47 40.32400 22.86730 36935 ft 465 kts 169°
2026-04-21 16:47 40.26211 22.89195 36936 ft 465 kts 169°
2026-04-21 16:48 40.20019 22.91656 36935 ft 465 kts 169°
2026-04-21 16:48 40.13826 22.94115 36923 ft 465 kts 169°
2026-04-21 16:49 40.08997 22.96030 36929 ft 465 kts 169°
2026-04-21 16:49 40.02800 22.98482 36917 ft 465 kts 169°
2026-04-21 16:50 39.96605 23.00930 36904 ft 465 kts 169°
2026-04-21 16:50 39.90449 23.03356 36901 ft 465 kts 169°
2026-04-21 16:51 39.84247 23.05797 36888 ft 465 kts 169°
2026-04-21 16:51 39.78048 23.08230 36888 ft 465 kts 169°
2026-04-21 16:52 39.71851 23.10657 36875 ft 465 kts 169°
2026-04-21 16:52 39.65644 23.13086 36875 ft 465 kts 169°
2026-04-21 16:53 39.59454 23.15505 36869 ft 465 kts 169°
2026-04-21 16:53 39.53262 23.17917 36868 ft 464 kts 169°
2026-04-21 16:54 39.47111 23.20311 36867 ft 464 kts 169°
2026-04-21 16:54 39.44721 23.21239 36863 ft 464 kts 169°
2026-04-21 16:55 39.38537 23.23639 36861 ft 464 kts 169°
2026-04-21 16:55 39.32350 23.26036 36863 ft 464 kts 169°
2026-04-21 16:56 39.26162 23.28430 36861 ft 464 kts 169°
2026-04-21 16:56 39.19967 23.30820 36863 ft 464 kts 169°
2026-04-21 16:57 39.15790 23.32430 36860 ft 464 kts 169°
2026-04-21 16:57 39.11825 23.33954 36862 ft 465 kts 169°
2026-04-21 16:58 39.05621 23.36335 36860 ft 465 kts 169°
2026-04-21 16:58 38.99425 23.38713 36860 ft 464 kts 169°
2026-04-21 16:59 38.93239 23.41085 36862 ft 464 kts 169°
2026-04-21 16:59 38.87088 23.43436 36856 ft 463 kts 169°
2026-04-21 17:00 38.80912 23.45792 36883 ft 462 kts 169°
2026-04-21 17:00 38.75788 23.47743 36880 ft 462 kts 169°
2026-04-21 17:01 38.68593 23.50478 36887 ft 462 kts 169°
2026-04-21 17:01 38.62428 23.52816 36899 ft 462 kts 169°
2026-04-21 17:02 38.56259 23.55152 36893 ft 463 kts 169°
2026-04-21 17:02 38.50079 23.57489 36914 ft 463 kts 169°
2026-04-21 17:03 38.43886 23.59826 36929 ft 464 kts 169°
2026-04-21 17:03 38.37697 23.62158 36912 ft 464 kts 169°
2026-04-21 17:04 38.31494 23.64491 36916 ft 464 kts 169°
2026-04-21 17:04 38.25330 23.66806 36914 ft 465 kts 169°
2026-04-21 17:05 38.19122 23.69132 36919 ft 465 kts 169°
2026-04-21 17:05 38.12904 23.71458 36916 ft 466 kts 169°
2026-04-21 17:06 38.06685 23.73779 36910 ft 466 kts 169°
2026-04-21 17:06 38.00469 23.76095 36934 ft 466 kts 169°
2026-04-21 17:07 37.95303 23.78021 36932 ft 465 kts 169°
2026-04-21 17:07 37.88025 23.80629 36930 ft 462 kts 175°
2026-04-21 17:08 37.81722 23.81745 36940 ft 456 kts 179°
2026-04-21 17:08 37.75409 23.82648 36931 ft 456 kts 179°
2026-04-21 17:09 37.65960 23.84088 36933 ft 456 kts 179°
2026-04-21 17:09 37.59656 23.85096 36939 ft 456 kts 179°
2026-04-21 17:10 37.53369 23.86107 36934 ft 455 kts 179°
2026-04-21 17:10 37.47073 23.87116 36936 ft 455 kts 179°
2026-04-21 17:11 37.40819 23.88788 36071 ft 474 kts 168°
2026-04-21 17:11 37.38568 23.89695 35543 ft 470 kts 167°
2026-04-21 17:11 37.35506 23.91010 35058 ft 460 kts 166°
2026-04-21 17:12 37.32487 23.92316 34431 ft 458 kts 166°
2026-04-21 17:12 37.29460 23.93602 33823 ft 460 kts 167°
2026-04-21 17:12 37.26389 23.94876 33238 ft 470 kts 167°
2026-04-21 17:12 37.23263 23.96141 33067 ft 469 kts 167°
2026-04-21 17:13 37.20203 23.97379 32955 ft 456 kts 167°
2026-04-21 17:13 37.17227 23.98582 32897 ft 443 kts 167°
2026-04-21 17:13 37.14307 23.99753 32592 ft 437 kts 167°
2026-04-21 17:13 37.11411 24.00906 32057 ft 437 kts 168°
2026-04-21 17:14 37.08471 24.02068 31022 ft 450 kts 167°
2026-04-21 17:14 37.05417 24.03270 29723 ft 468 kts 167°
2026-04-21 17:14 37.02284 24.04520 28882 ft 474 kts 167°
2026-04-21 17:14 36.99194 24.05733 28403 ft 468 kts 167°
2026-04-21 17:15 36.96114 24.06935 27927 ft 460 kts 167°
2026-04-21 17:15 36.93072 24.08152 27305 ft 458 kts 166°
2026-04-21 17:15 36.90042 24.09374 26738 ft 455 kts 166°
2026-04-21 17:15 36.87048 24.10570 26264 ft 451 kts 166°
2026-04-21 17:16 36.84069 24.11756 25776 ft 446 kts 166°
2026-04-21 17:16 36.81125 24.12927 25255 ft 442 kts 166°
2026-04-21 17:16 36.78200 24.14085 24726 ft 440 kts 166°
2026-04-21 17:16 36.75292 24.15234 24196 ft 437 kts 166°
2026-04-21 17:17 36.72404 24.16373 23676 ft 434 kts 166°
2026-04-21 17:17 36.69528 24.17507 23185 ft 430 kts 166°
2026-04-21 17:17 36.66688 24.18625 22699 ft 426 kts 166°
2026-04-21 17:17 36.64817 24.19362 22362 ft 424 kts 166°
2026-04-21 17:18 36.62014 24.20466 21855 ft 421 kts 166°
2026-04-21 17:18 36.59228 24.21563 21375 ft 418 kts 166°
2026-04-21 17:18 36.55566 24.23001 20723 ft 414 kts 166°
2026-04-21 17:18 36.53713 24.23728 20396 ft 412 kts 166°
2026-04-21 17:19 36.50988 24.24798 19915 ft 409 kts 165°
2026-04-21 17:19 36.48281 24.25861 19451 ft 406 kts 165°
2026-04-21 17:19 36.45600 24.26913 18963 ft 403 kts 165°
2026-04-21 17:19 36.42969 24.27944 18491 ft 401 kts 165°
2026-04-21 17:20 36.40318 24.28981 18039 ft 398 kts 165°
2026-04-21 17:20 36.37687 24.30009 17586 ft 395 kts 165°
2026-04-21 17:20 36.35078 24.31029 17121 ft 391 kts 165°
2026-04-21 17:20 36.32482 24.32044 16653 ft 389 kts 165°
2026-04-21 17:21 36.29916 24.33046 16180 ft 386 kts 165°
2026-04-21 17:21 36.27359 24.34044 15740 ft 383 kts 165°
2026-04-21 17:21 36.24825 24.35032 15262 ft 380 kts 165°
2026-04-21 17:21 36.22304 24.36000 14804 ft 377 kts 168°
2026-04-21 17:22 36.19739 24.36320 14306 ft 368 kts 189°
2026-04-21 17:22 36.17253 24.35729 13904 ft 361 kts 196°
2026-04-21 17:22 36.14817 24.35014 13455 ft 359 kts 197°
2026-04-21 17:22 36.12396 24.34296 12993 ft 357 kts 196°
2026-04-21 17:23 36.09981 24.33592 12551 ft 355 kts 196°
2026-04-21 17:23 36.07614 24.32915 12120 ft 352 kts 196°
2026-04-21 17:23 36.05230 24.32244 11681 ft 350 kts 195°
2026-04-21 17:23 36.02863 24.31582 11235 ft 348 kts 195°
2026-04-21 17:24 36.00511 24.30927 10937 ft 342 kts 195°
2026-04-21 17:24 35.98231 24.30292 10798 ft 331 kts 195°
2026-04-21 17:24 35.96019 24.29675 10691 ft 320 kts 195°
2026-04-21 17:24 35.93885 24.29077 10610 ft 309 kts 196°
2026-04-21 17:25 35.91819 24.28498 10538 ft 299 kts 196°
2026-04-21 17:25 35.89823 24.27940 10451 ft 289 kts 196°
2026-04-21 17:25 35.87884 24.27396 10290 ft 282 kts 196°
2026-04-21 17:25 35.85982 24.26863 10068 ft 279 kts 196°
2026-04-21 17:26 35.84091 24.26335 9771 ft 278 kts 196°
2026-04-21 17:26 35.82184 24.25929 9458 ft 281 kts 181°
2026-04-21 17:26 35.80323 24.26670 9145 ft 288 kts 145°
2026-04-21 17:26 35.79051 24.28537 8969 ft 286 kts 116°
2026-04-21 17:27 35.78341 24.30766 8838 ft 280 kts 112°
2026-04-21 17:27 35.77588 24.32962 8567 ft 278 kts 116°
2026-04-21 17:27 35.76712 24.35080 8304 ft 277 kts 121°
2026-04-21 17:27 35.75702 24.37089 8049 ft 274 kts 126°
2026-04-21 17:28 35.74577 24.38973 7789 ft 273 kts 131°
2026-04-21 17:28 35.73348 24.40751 7542 ft 271 kts 135°
2026-04-21 17:28 35.72058 24.42387 7463 ft 261 kts 139°
2026-04-21 17:28 35.70738 24.43866 7388 ft 252 kts 142°
2026-04-21 17:29 35.69391 24.45197 7156 ft 249 kts 146°
2026-04-21 17:29 35.67935 24.46454 6654 ft 260 kts 149°
2026-04-21 17:29 35.66402 24.47648 6326 ft 261 kts 152°
2026-04-21 17:29 35.64746 24.48453 6036 ft 254 kts 178°
2026-04-21 17:30 35.63052 24.48127 5782 ft 245 kts 208°
2026-04-21 17:30 35.61716 24.46904 5542 ft 238 kts 232°
2026-04-21 17:30 35.60914 24.45243 5492 ft 220 kts 249°
2026-04-21 17:30 35.60379 24.43538 5233 ft 210 kts 250°
2026-04-21 17:31 35.59867 24.41881 4845 ft 206 kts 250°
2026-04-21 17:31 35.59292 24.40289 4417 ft 203 kts 237°
2026-04-21 17:31 35.58371 24.39039 4194 ft 191 kts 229°
2026-04-21 17:31 35.57492 24.37895 4041 ft 176 kts 230°
2026-04-21 17:32 35.56683 24.36831 4006 ft 168 kts 231°
2026-04-21 17:32 35.55879 24.35774 3868 ft 173 kts 231°
2026-04-21 17:32 35.55064 24.34702 3683 ft 170 kts 231°
2026-04-21 17:32 35.54262 24.33648 3503 ft 167 kts 231°
2026-04-21 17:33 35.53475 24.32614 3310 ft 165 kts 231°
2026-04-21 17:33 35.52687 24.31581 3192 ft 165 kts 232°
2026-04-21 17:33 35.51919 24.30580 3113 ft 156 kts 232°
2026-04-21 17:33 35.51152 24.29573 2814 ft 163 kts 231°
2026-04-21 17:34 35.50401 24.28593 2560 ft 153 kts 231°
2026-04-21 17:34 35.49731 24.27625 2341 ft 145 kts 245°
2026-04-21 17:34 35.49654 24.26438 2164 ft 143 kts 284°
2026-04-21 17:34 35.49900 24.25267 1979 ft 148 kts 284°
2026-04-21 17:35 35.50216 24.24060 1769 ft 148 kts 288°
2026-04-21 17:35 35.50561 24.22888 1569 ft 148 kts 290°
2026-04-21 17:35 35.50938 24.21696 1438 ft 151 kts 291°
2026-04-21 17:35 35.51347 24.20488 1212 ft 155 kts 292°
2026-04-21 17:36 35.51758 24.19274 961 ft 154 kts 292°
2026-04-21 17:36 35.52173 24.18047 722 ft 155 kts 291°
2026-04-21 17:36 35.52565 24.16834 558 ft 151 kts 291°
2026-04-21 17:36 35.52937 24.15694 487 ft 133 kts 291°
2026-04-21 17:37 35.53199 24.14888 492 ft 71 kts 292°
2026-04-21 17:37 35.53338 24.14457 491 ft 47 kts 291°
2026-04-21 17:37 35.53420 24.14263 497 ft 14 kts 342°
2026-04-21 17:37 35.53472 24.14281 497 ft 0 kts 23°
2026-04-21 17:39 35.53473 24.14281 497 ft 1 kts 23°
2026-04-21 17:39 35.53519 24.14304 493 ft 14 kts 22°
2026-04-21 17:39 35.53617 24.14349 487 ft 14 kts 19°
2026-04-21 17:39 35.53687 24.14333 489 ft 10 kts 296°
2026-04-21 17:40 35.53716 24.14250 488 ft 14 kts 292°
2026-04-21 17:40 35.53753 24.14140 489 ft 13 kts 292°
2026-04-21 17:40 35.53782 24.14053 499 ft 9 kts 292°
2026-04-21 17:40 35.53784 24.14045 497 ft 0 kts 291°
2026-04-21 17:41 35.53785 24.14043 497 ft 2 kts 291°
2026-04-21 17:41 35.53788 24.14033 497 ft 0 kts 290°
2026-04-21 17:41 35.53791 24.14028 497 ft 0 kts 309°
2026-04-21 17:42 35.53821 24.14029 495 ft 6 kts 29°
2026-04-21 17:42 35.53849 24.14048 494 ft 1 kts 27°
2026-04-21 17:42 35.53856 24.14052 490 ft 2 kts 24°
2026-04-21 17:43 35.53868 24.14058 499 ft 0 kts 22°